Weather in Nablus

Palestinian Territory     32°12′50″N   35°16′16″E
temp.,
°C
wind,
m/s
gust,
m/s
humid.,
%
clouds,
%
prec.,
mm/h
press.,
hPa
HPBL,
m
10 august, wed
wed1000:00+22w34790 0.0 1009336
03:00+21w238626 0.0 1008179
06:00+21wsw228932 0.0 1008102
09:00+25w456829 0.1 1008942
12:00+29w66460 0.0 10081245
15:00+30wnw77410 0.0 10071204
18:00+26wnw77610 0.0 1007871
21:00+24wnw567825 0.0 1008646
11 august, thu
thu1100:00+23wnw467954 0.0 1007653
03:00+22wsw248911 0.0 1007259
06:00+22wsw228921 0.0 100864
09:00+25w34671 0.1 1009783
12:00+30wnw65420 0.0 10081266
15:00+30wnw76390 0.0 10071142
18:00+28nw66490 0.0 1007770
21:00+24wnw45740 0.0 1008391
12 august, fri
fri1200:00+23wnw24810 0.0 1008183
03:00+22w11830 0.0 100826
06:00+21w11830 0.0 100815
09:00+25nw33550 0.0 1009502
12:00+31wnw44300 0.0 10081145
15:00+32wnw75280 0.0 10071066
18:00+28wnw67370 0.0 1008674
21:00+24wnw46650 0.0 1009363
13 august, sat
sat1300:00+22w23730 0.0 1009109
03:00+21wsw22780 0.0 100844
06:00+20sw22820 0.0 100921
09:00+24wsw44590 0.0 1009638
12:00+29w65360 0.0 10081016
15:00+30w77340 0.0 1007950
18:00+26wnw77550 0.0 1007715
21:00+23w468213 0.0 1008516
14 august, sun
sun1400:00+22wsw358830 0.0 1008432
03:00+22w358226 0.1 1007260
06:00+21sw228624 0.0 100834
09:00+25wsw34640 0.0 1008749
12:00+30w55410 0.0 10071185
15:00+30wnw76420 0.0 10071062
18:00+27wnw66590 0.0 1007661
21:00+23wnw458517 0.0 1008387